Location: Beccas
(43.4309°N, 0.1528°E)
Time: 10:48:18
(UTC+00:00)

Cosmos 1455 Rocket - Pass Details

Date: 15 October 2021
Orbit: 604 x 630 km, 82.5° (Epoch: 02 December)

Event Time Altitude Azimuth Distance (km) Brightness Sun altitude
Rises 17:50:31 0° 150° (SSE) 2,875 6.2 -7.0°
Reaches altitude 10° 17:53:11 10° 133° (SE) 1,980 5.3 -7.5°
Maximum altitude 17:56:22 20° 87° (E) 1,450 4.3 -8.1°
Drops below altitude 10° 17:59:34 10° 40° (NE) 2,004 5.3 -8.7°
Sets 18:02:17 0° 24° (NNE) 2,920 6.2 -9.1°
